STARLINK-1158 (45056 NORAD) Tracking and Keplerian Element Data

This shows tracking and keplerian element data for the satellite.

Feedback or suggestion? Click here.




ElementValue
Catalog45056
NameSTARLINK-1158
Epoch Orbit401
Epoch Day52.91667824
Epoch Year2020
RAAN121.1648
Inclination52.998
Eccentricity0.0001328
Argument of Perigee77.8553
Mean Anonmoly300.3727
Mean Motion15.47877306
Decay Rate5.04E-06
L11 45056U 20006N 20052.91667824 .00000504 00000-0 17862-4 0 9997
L22 45056 52.9980 121.1648 0001328 77.8553 300.3727 15.47877306 4012

Live tracking and technical data element details for STARLINK-1158 (NORAD 45056). STARLINK-1158 can be tracked NOW for your location showing map with azimuth and elevation plus other details from your city location.

Track the satellite on the map from your city or location and see movement details for azimuth, elevation, latitude, longitude, range, height, and movement on the map or in text.







IsCatalogInMostPopularTable: catalog: 45056, numindb: 6
Update: records affected: 1



GetName: 45056 STARLINK-1158

Hit Count: updated at: Mon, 24 Feb 2020 16:38:14 GMT